Location: Newark
(48.8833°N, 0.9236°W)
Time: 07:03:32
(UTC+00:00)

Transit 4A - Pass Details

Date: 27 November 2019
Orbit: 870 x 975 km, 66.8° (Epoch: 13 December)

Event Time Altitude Azimuth Distance (km) Brightness Sun altitude
Exits shadow 03:07:35 21° 72° (ENE) 1,867 9.9 -42.2°
Drops below altitude 10° 03:10:06 10° 93° (E) 2,528 10.7 -41.9°
Sets 03:12:56 0° 105° (ESE) 3,457 11.5 -41.4°
